Wind_Speed
43 43 43 43 42 43 43 43 43 43 43 43 43 43 43 43 44 45 46 46 46 46 47 47 46 46 46 45 45 46 46 46 46 45 44 44 45 46 46 45 46 45 46
42 41 41 41 40 41 41 41 41 41 41 42 42 42 42 42 43 44 45 45 45 45 46 45 45 44 43 42 43 43 44 44 44 43 42 43 44 44 43 43 42 43 44
41 41 41 40 39 40 40 39 39 40 40 41 41 41 40 40 40 41 41 41 42 42 43 43 42 41 41 40 41 42 43 42 42 41 41 41 41 42 41 41 41 42 43
41 40 40 39 39 38 39 39 39 39 39 40 39 39 39 39 39 38 38 39 39 40 40 41 40 39 39 39 40 41 42 41 40 39 39 39 40 40 41 41 41 41 42
40 39 39 39 39 38 37 38 37 37 37 37 37 37 37 37 37 36 36 37 38 38 38 38 38 37 38 37 38 39 39 39 38 38 38 38 39 39 40 41 41 41 41
39 38 38 37 37 37 36 36 35 35 35 35 35 35 36 36 36 36 35 36 37 36 36 36 36 35 35 35 36 37 37 37 37 36 36 36 37 38 40 41 40 40 40
36 36 36 36 36 36 36 35 34 34 33 34 34 35 36 36 35 36 36 35 35 35 35 35 35 34 35 34 34 35 36 36 36 36 36 35 36 37 39 38 38 38 39
35 35 34 35 34 34 34 34 33 32 32 33 33 34 34 34 34 33 34 34 33 33 33 33 33 33 34 34 34 34 35 36 35 35 35 35 35 36 37 36 36 37 36
35 35 35 34 33 32 32 31 31 31 31 31 31 31 31 31 31 31 32 31 31 31 32 32 32 33 33 33 34 34 35 36 35 34 34 33 34 35 35 35 35 34 33
36 35 34 33 32 32 32 31 30 29 28 28 28 28 29 29 29 30 30 30 31 31 32 33 33 33 33 33 33 34 35 35 34 33 32 32 33 34 34 33 32 32 32
35 35 33 32 32 31 31 30 28 26 25 25 26 26 26 27 28 29 29 30 30 31 31 32 32 32 33 33 33 32 32 32 32 31 31 31 32 31 31 30 31 30 30
34 33 32 31 30 29 28 27 26 25 24 24 25 25 25 26 27 28 29 29 29 30 30 31 31 31 31 31 31 30 30 31 30 30 30 30 30 30 29 29 29 29 29
31 30 29 29 28 27 26 24 25 25 25 24 24 24 24 24 25 26 27 27 27 27 28 29 29 29 29 29 30 29 29 29 28 29 28 28 28 28 28 29 29 28 28
26 26 25 25 25 25 25 24 24 24 24 23 23 23 22 23 24 24 24 23 24 25 26 26 26 26 26 26 27 26 26 27 27 26 26 26 25 25 26 27 27 26 26
24 24 24 23 23 23 23 22 22 22 22 22 22 22 22 21 21 22 22 22 22 23 23 23 23 23 23 23 23 24 24 24 24 25 24 24 23 24 24 25 25 24 23
23 23 23 22 22 22 22 21 22 22 21 20 20 21 20 20 20 20 20 20 21 21 21 20 20 20 20 20 20 20 20 21 23 23 23 22 22 23 23 22 22 21 21
23 22 22 22 22 22 21 21 21 21 20 19 19 19 19 19 20 20 19 19 19 19 18 18 18 18 18 18 18 18 19 20 20 21 21 21 21 20 20 20 20 19 19
20 20 20 20 20 20 19 19 19 19 18 18 17 17 17 17 18 18 18 18 18 17 17 17 18 18 18 18 18 18 18 19 18 18 18 18 17 17 17 17 17 18 18
17 17 17 17 17 16 16 16 17 17 17 16 16 16 16 16 16 17 17 17 17 17 16 17 18 18 18 18 17 17 17 16 16 15 15 15 15 15 15 16 16 16 17
15 14 15 15 15 15 15 15 15 15 15 15 15 15 15 16 16 16 16 16 17 17 17 18 18 18 17 16 16 15 14 14 14 14 14 14 14 14 14 14 15 15 15
14 14 14 13 13 14 14 14 14 14 14 14 14 14 14 15 15 15 15 16 16 17 17 17 16 16 16 15 15 14 13 13 13 13 12 12 12 13 13 13 14 14 14
13 12 12 12 12 13 14 14 14 15 15 15 14 14 14 14 14 15 15 15 15 16 16 15 15 15 15 14 13 13 12 12 12 12 12 11 11 11 12 12 12 12 13
14 13 12 12 12 12 13 14 14 14 14 14 14 14 14 14 14 15 15 14 15 15 14 14 14 14 13 13 12 12 12 11 11 11 11 11 10 10 10 11 11 11 11
14 13 13 12 13 13 14 14 14 14 15 15 15 15 14 14 14 14 15 15 15 15 14 14 13 13 13 13 12 12 11 11 10 10 10 10 10 9 9 9 9 9 10
15 14 13 13 13 13 13 13 13 14 15 15 14 14 14 14 14 14 15 15 15 15 14 14 13 13 13 13 11 11 10 10 9 9 9 9 8 8 8 8 7 7 8
14 14 13 13 13 13 13 12 12 13 13 13 13 13 14 13 14 14 14 14 15 15 15 14 13 13 12 12 11 10 9 8 8 7 7 7 7 7 6 6 6 6 6
Wind_Direction
278 277 278 278 276 273 271 269 267 265 262 261 260 261 261 261 260 260 260 257 256 255 255 255 256 257 258 257 258 259 260 260 261 260 261 262 263 264 265 266 267 267 267
278 277 278 278 277 274 271 270 268 266 264 261 261 261 261 261 260 260 259 257 255 254 253 253 255 256 256 257 257 259 259 260 261 261 261 262 263 264 264 264 265 267 267
278 277 278 278 276 275 272 269 268 267 265 263 263 262 261 261 261 261 261 258 254 253 252 253 253 254 254 255 256 257 257 259 261 262 261 263 262 261 262 263 265 267 268
277 277 278 278 277 274 272 270 267 266 265 264 264 263 261 262 261 262 261 258 254 252 251 251 251 253 253 253 255 257 258 259 260 260 261 261 261 260 262 264 266 268 269
277 278 280 278 276 274 272 269 266 265 264 264 263 262 261 261 261 261 259 256 253 251 249 249 250 252 252 251 254 256 257 258 258 260 261 261 261 262 264 265 267 269 268
279 279 279 278 277 275 273 269 266 264 264 263 263 261 260 260 260 259 256 254 252 249 247 247 247 249 249 250 252 254 256 257 258 260 262 263 262 263 265 267 268 270 270
278 279 279 278 277 275 272 269 266 264 263 262 262 261 260 259 259 257 255 254 251 248 247 247 248 249 249 249 251 254 256 257 258 261 264 265 264 263 265 265 267 270 272
276 277 279 278 277 275 272 268 265 263 263 262 262 262 260 258 257 255 252 250 248 246 247 247 248 249 249 250 252 253 256 257 259 261 264 265 263 263 263 265 268 271 273
277 278 278 278 277 274 271 268 266 264 263 263 261 260 258 256 254 252 249 248 248 246 246 246 249 249 250 251 252 253 256 257 260 261 261 261 261 262 263 267 271 272 273
276 276 277 276 274 273 271 269 266 265 263 261 259 259 258 254 252 250 249 249 247 246 248 248 251 251 250 252 255 256 257 258 259 259 259 260 261 263 266 268 271 273 272
276 275 275 273 272 271 269 267 264 262 260 258 258 255 254 252 250 249 249 250 251 251 251 250 250 250 251 253 254 255 255 255 257 258 259 261 262 263 265 267 269 272 273
276 275 273 272 269 267 266 263 259 258 259 258 257 254 254 251 248 246 248 250 252 251 252 251 249 249 250 250 251 252 253 255 256 257 259 260 261 262 264 266 268 272 273
273 271 270 268 267 266 263 260 257 257 258 256 254 252 251 249 246 245 247 248 250 250 251 250 248 249 249 249 250 252 253 253 255 258 259 260 261 263 265 266 269 272 274
270 269 268 266 264 263 260 259 256 256 255 253 251 249 248 246 244 245 246 248 248 248 250 248 247 248 248 249 249 250 252 253 255 257 259 259 261 265 266 267 270 273 275
269 268 266 264 260 258 256 256 253 251 251 252 250 248 247 245 243 243 245 247 248 246 246 244 245 246 246 247 247 250 251 252 255 257 256 257 260 263 265 268 271 272 274
266 267 266 263 260 258 256 253 250 249 248 249 248 245 244 244 245 245 245 244 244 244 245 243 243 243 245 246 247 249 251 253 255 255 255 257 260 263 266 269 270 271 276
266 266 264 263 260 257 254 251 249 249 248 246 244 243 244 244 245 245 245 243 241 241 241 239 239 241 240 242 246 250 254 256 257 255 255 257 261 264 267 270 271 274 279
266 265 263 262 258 253 249 247 245 244 244 245 243 243 244 243 241 240 240 239 236 234 237 235 235 238 239 243 248 253 257 257 257 257 257 258 261 265 267 270 273 278 281
266 263 262 259 253 249 245 241 239 238 237 237 239 240 241 240 236 235 236 236 232 231 234 235 237 240 243 246 250 253 254 252 252 252 254 258 261 264 267 270 273 278 282
263 261 259 254 249 245 242 240 239 238 235 234 235 237 238 237 234 234 232 231 232 233 234 234 239 244 247 249 249 247 248 247 248 251 255 259 261 265 267 270 275 280 284
263 262 257 253 245 240 238 236 234 233 232 232 232 234 235 236 236 233 231 231 233 234 231 234 239 241 242 242 240 240 244 245 246 249 253 256 259 263 268 274 278 280 283
261 256 252 249 242 238 238 235 235 235 233 231 232 232 233 234 232 231 230 230 231 230 230 232 234 236 235 234 236 237 240 243 245 246 249 254 258 265 270 273 275 280 286
255 251 249 245 238 241 243 241 240 238 235 234 235 237 233 230 231 230 228 227 225 225 226 227 228 230 230 232 234 235 238 240 243 244 246 252 256 260 264 269 277 285 292
249 246 246 243 241 243 243 242 241 239 237 236 237 236 230 229 229 225 223 222 221 222 224 225 226 228 229 230 232 235 238 238 237 237 241 248 252 255 262 269 279 287 296
244 244 245 243 242 243 243 241 240 238 235 234 234 231 227 227 225 223 221 220 219 219 220 223 225 226 225 225 226 229 231 230 230 234 241 247 251 254 259 268 277 288 297
242 241 242 241 238 239 239 237 236 234 228 226 225 222 220 220 219 218 217 218 217 219 219 220 220 219 219 218 219 223 226 228 231 236 244 246 246 249 260 271 281 290 299
Height
5568 5567 5565 5562 5560 5559 5558 5558 5558 5559 5560 5561 5563 5564 5566 5567 5569 5571 5572 5574 5576 5579 5582 5584 5587 5589 5591 5593 5595 5598 5600 5602 5605 5609 5611 5613 5613 5614 5616 5617 5618 5619 5620
5557 5555 5554 5551 5549 5548 5547 5546 5546 5547 5548 5550 5551 5553 5554 5556 5557 5558 5560 5561 5563 5566 5569 5572 5574 5577 5579 5582 5584 5587 5589 5591 5593 5596 5599 5600 5602 5603 5604 5605 5606 5607 5608
5546 5545 5543 5540 5538 5537 5536 5535 5536 5536 5537 5538 5540 5542 5543 5544 5545 5547 5547 5549 5551 5554 5557 5560 5562 5565 5568 5571 5574 5576 5578 5580 5582 5584 5587 5589 5590 5591 5592 5594 5595 5596 5596
5536 5534 5532 5530 5528 5526 5525 5525 5525 5525 5526 5528 5529 5531 5532 5533 5534 5535 5536 5538 5540 5542 5545 5548 5551 5554 5557 5561 5564 5566 5568 5570 5571 5573 5576 5578 5579 5580 5582 5583 5585 5586 5586
5525 5523 5522 5520 5518 5516 5515 5515 5515 5516 5517 5518 5519 5520 5522 5523 5524 5525 5526 5528 5530 5532 5535 5538 5541 5544 5547 5551 5554 5556 5558 5560 5562 5563 5565 5567 5569 5571 5572 5573 5574 5574 5575
5515 5513 5512 5510 5508 5507 5506 5505 5506 5507 5507 5509 5510 5511 5512 5513 5514 5515 5516 5518 5520 5523 5526 5529 5532 5535 5538 5541 5544 5547 5549 5551 5553 5554 5556 5557 5559 5560 5561 5562 5563 5564 5566
5506 5504 5502 5500 5499 5497 5497 5496 5496 5497 5498 5499 5500 5502 5503 5504 5505 5506 5507 5509 5511 5514 5517 5520 5523 5526 5529 5532 5535 5538 5540 5541 5543 5545 5546 5548 5549 5550 5551 5552 5553 5554 5554
5496 5495 5493 5491 5490 5488 5487 5487 5488 5488 5489 5491 5491 5492 5493 5494 5495 5496 5498 5500 5503 5505 5508 5511 5514 5518 5521 5524 5527 5529 5531 5533 5534 5536 5537 5538 5539 5540 5541 5542 5543 5544 5544
5487 5486 5484 5483 5481 5480 5479 5479 5479 5480 5481 5482 5483 5483 5484 5486 5487 5488 5490 5492 5495 5498 5501 5504 5507 5509 5512 5515 5517 5520 5522 5524 5525 5526 5528 5528 5529 5530 5531 5533 5534 5534 5534
5478 5477 5475 5474 5473 5471 5471 5471 5471 5472 5473 5474 5475 5475 5476 5478 5479 5481 5483 5485 5488 5491 5493 5496 5499 5501 5504 5506 5509 5511 5513 5515 5516 5517 5519 5520 5521 5522 5522 5523 5524 5525 5525
5469 5467 5466 5465 5463 5463 5462 5462 5463 5464 5465 5466 5467 5468 5469 5471 5472 5474 5476 5478 5481 5483 5486 5488 5490 5492 5495 5497 5500 5502 5504 5506 5508 5509 5510 5512 5512 5513 5514 5515 5516 5516 5516
5458 5457 5456 5455 5454 5453 5454 5454 5455 5457 5458 5459 5460 5461 5462 5464 5465 5467 5469 5471 5473 5476 5478 5480 5482 5484 5487 5489 5492 5494 5496 5498 5500 5502 5503 5504 5505 5506 5507 5507 5507 5507 5507
5449 5448 5447 5446 5445 5445 5446 5447 5448 5449 5451 5452 5453 5455 5456 5457 5458 5460 5462 5464 5466 5469 5471 5473 5475 5477 5479 5482 5484 5486 5488 5490 5493 5494 5496 5497 5498 5498 5499 5499 5500 5500 5499
5440 5439 5438 5437 5438 5438 5439 5440 5441 5443 5444 5446 5447 5449 5450 5451 5452 5454 5456 5458 5460 5462 5464 5466 5468 5470 5472 5475 5477 5479 5481 5484 5486 5487 5488 5489 5490 5491 5492 5492 5492 5492 5492
5432 5431 5431 5430 5430 5431 5432 5433 5435 5436 5439 5440 5442 5443 5444 5446 5447 5449 5451 5453 5454 5456 5458 5460 5462 5464 5467 5469 5471 5473 5475 5477 5479 5480 5481 5483 5484 5485 5485 5485 5485 5485 5485
5425 5425 5424 5424 5425 5425 5426 5427 5428 5430 5432 5434 5435 5437 5439 5441 5442 5444 5446 5448 5450 5451 5453 5456 5458 5460 5462 5464 5466 5468 5469 5471 5473 5474 5475 5476 5478 5478 5479 5479 5479 5479 5479
5419 5418 5418 5418 5418 5419 5420 5422 5423 5425 5426 5428 5430 5431 5433 5435 5437 5439 5441 5443 5445 5446 5449 5451 5453 5456 5458 5460 5461 5463 5464 5466 5467 5468 5470 5471 5471 5472 5472 5473 5472 5472 5472
5412 5412 5412 5412 5413 5414 5415 5417 5418 5420 5422 5423 5425 5426 5428 5430 5432 5434 5436 5438 5440 5442 5444 5447 5449 5451 5453 5455 5456 5458 5459 5461 5462 5463 5464 5465 5466 5466 5467 5467 5467 5467 5466
5407 5407 5407 5407 5408 5409 5411 5412 5414 5416 5417 5419 5421 5422 5423 5425 5427 5430 5431 5434 5436 5438 5440 5443 5445 5447 5449 5450 5452 5453 5454 5455 5457 5458 5459 5460 5461 5461 5462 5462 5462 5461 5461
5403 5403 5403 5403 5404 5406 5407 5408 5410 5412 5413 5415 5417 5418 5420 5422 5424 5426 5427 5430 5432 5434 5436 5438 5440 5442 5444 5446 5447 5448 5450 5451 5453 5454 5455 5456 5456 5457 5457 5457 5457 5457 5456
5399 5398 5399 5399 5400 5402 5403 5405 5406 5408 5410 5412 5413 5415 5416 5418 5420 5422 5424 5426 5428 5430 5432 5434 5436 5438 5440 5441 5443 5444 5446 5447 5449 5450 5451 5451 5452 5452 5453 5453 5453 5452 5452
5394 5394 5395 5396 5397 5398 5399 5401 5403 5405 5406 5408 5409 5411 5413 5415 5417 5419 5421 5423 5424 5426 5428 5430 5432 5434 5436 5438 5439 5441 5443 5444 5445 5446 5447 5448 5448 5449 5449 5449 5449 5448 5448
5389 5390 5391 5392 5393 5394 5396 5397 5399 5400 5402 5404 5406 5408 5409 5411 5413 5415 5417 5419 5421 5423 5425 5427 5429 5431 5433 5434 5436 5438 5439 5441 5442 5443 5444 5444 5445 5445 5445 5446 5445 5445 5444
5385 5386 5387 5388 5389 5390 5392 5393 5394 5396 5398 5400 5402 5404 5405 5408 5409 5411 5414 5416 5418 5420 5422 5424 5426 5428 5430 5431 5433 5434 5436 5437 5438 5440 5441 5441 5442 5442 5442 5442 5442 5442 5441
5380 5381 5382 5384 5385 5386 5387 5389 5390 5392 5394 5395 5397 5399 5401 5403 5406 5408 5410 5413 5415 5417 5419 5421 5423 5425 5427 5429 5430 5432 5433 5434 5435 5437 5438 5438 5439 5439 5439 5439 5439 5439 5438
5376 5377 5378 5379 5381 5382 5383 5385 5386 5388 5390 5391 5393 5395 5397 5400 5402 5405 5407 5410 5412 5414 5416 5418 5420 5422 5425 5426 5428 5430 5431 5432 5433 5434 5435 5436 5436 5437 5437 5437 5437 5436 5436